GFSFLT2_700_spd_015.txt.gz
Wind_Speed
53 53 55 57 56 54 50 50 48 44 43 41 40 41 41 38 36 35 33 33 36 37 38 39 39 39 37
55 56 56 55 54 51 47 45 43 38 35 33 33 36 33 34 34 36 36 37 38 38 37 37 36 37 38
56 55 54 49 46 44 43 40 35 33 31 30 32 34 33 35 38 38 38 39 38 37 34 33 34 35 35
55 53 47 41 42 43 37 34 31 30 32 30 33 33 33 35 36 36 36 37 37 33 32 31 29 24 23
50 45 41 39 39 37 36 36 32 29 33 32 33 32 31 31 32 33 33 35 35 33 32 28 24 22 20
43 40 37 35 35 37 37 37 37 30 33 31 31 32 31 31 30 30 32 34 34 30 28 27 25 24 21
38 36 36 33 36 38 38 38 36 32 36 38 31 34 31 29 28 28 30 33 33 31 28 30 30 28 27
31 31 33 34 36 39 39 40 37 33 33 40 37 34 30 28 26 23 25 28 34 31 31 32 33 33 32
26 28 31 33 34 37 35 38 38 35 28 37 38 38 34 27 25 21 22 24 28 34 34 33 35 36 37
23 25 28 29 29 31 34 38 40 41 30 39 40 40 44 32 27 24 24 24 26 31 35 37 37 39 39
25 26 24 24 26 28 31 34 35 36 31 39 43 41 43 44 37 31 26 23 25 27 31 35 37 40 42
25 24 24 24 26 28 28 30 30 34 36 36 42 41 43 45 41 33 26 23 25 24 28 30 34 36 39
24 23 25 27 27 28 27 30 30 27 30 33 37 38 39 41 41 33 31 25 23 24 24 26 28 32 35
25 25 27 27 26 29 31 33 34 28 25 30 34 36 37 36 36 34 29 32 29 27 26 23 24 27 32
25 27 28 28 28 30 32 34 35 35 33 29 29 31 32 33 32 28 28 28 27 28 27 27 23 24 29
25 28 30 31 32 31 33 35 36 34 34 33 33 32 29 26 30 29 24 28 27 27 27 31 23 19 28
26 29 31 31 33 33 33 34 34 34 32 31 31 32 35 33 26 28 32 29 31 30 28 28 31 23 26

GFSFLT2_700_spd_018.txt.gz
Wind_Speed
51 51 51 52 55 56 58 58 55 51 51 48 46 46 45 44 44 43 40 38 37 37 39 40 40 39 38
53 52 53 55 57 57 54 51 49 46 44 40 40 42 41 41 42 43 42 41 41 41 42 43 42 42 43
54 55 56 53 54 52 49 45 42 38 34 36 38 39 39 40 43 43 41 43 42 42 42 42 41 39 39
55 56 54 51 48 47 42 39 36 34 33 36 36 37 38 40 42 41 42 42 40 41 39 37 36 34 36
53 53 49 44 42 41 39 37 35 32 33 36 33 35 33 36 37 39 40 41 40 40 39 36 35 34 35
51 48 43 40 39 38 38 37 36 31 34 33 32 35 35 37 36 36 38 39 39 38 40 38 36 35 34
47 42 40 38 38 38 36 37 37 35 37 39 37 37 34 34 33 33 34 36 36 36 39 38 37 35 35
38 36 37 36 36 37 36 39 38 37 35 42 38 38 37 35 31 31 30 31 31 33 39 38 37 35 34
32 32 34 33 34 36 36 39 39 38 32 39 38 40 40 37 30 27 28 27 29 33 39 40 40 36 35
27 28 29 29 30 34 37 39 39 36 33 42 43 43 46 43 35 31 28 26 28 30 36 38 40 40 37
25 24 25 25 27 30 33 35 35 37 33 41 44 43 45 48 43 35 30 26 25 27 31 33 37 39 39
24 24 25 24 26 30 31 32 34 37 35 38 43 42 45 46 45 36 28 26 25 25 27 28 31 35 38
23 23 25 26 28 31 30 32 33 32 33 35 38 40 42 44 45 36 34 26 24 24 24 25 27 31 35
22 23 25 28 29 32 33 33 34 31 30 33 35 38 39 39 39 35 30 33 28 26 27 24 23 26 31
24 25 27 29 30 31 33 33 34 35 31 28 30 32 34 35 35 31 30 27 26 28 28 26 21 23 28
23 26 29 30 29 29 31 33 33 32 31 30 31 31 30 29 35 34 26 28 26 26 26 29 20 18 25
23 24 27 28 29 29 30 31 30 31 29 29 30 33 37 38 30 28 34 31 32 32 31 31 31 21 27

GFSFLT2_700_spd_024.txt.gz
Wind_Speed
50 49 47 46 46 47 49 51 52 53 54 55 55 54 53 50 47 45 44 42 41 41 42 42 43 42 41
49 47 47 46 48 50 51 51 53 53 53 51 49 48 46 45 45 43 42 42 42 43 44 45 45 44 42
47 47 48 47 49 51 52 51 51 50 47 45 45 43 42 42 41 41 43 43 45 46 47 47 46 44 43
46 48 48 49 51 52 53 50 49 43 41 41 39 38 38 39 40 43 44 45 46 47 48 47 46 44 41
46 47 48 49 49 51 52 51 45 38 37 34 32 34 35 37 39 40 40 41 41 42 43 44 44 44 42
46 48 49 48 49 49 49 47 43 35 33 31 32 34 37 36 34 34 36 37 39 40 40 42 43 45 44
49 48 49 48 49 47 44 40 39 33 34 34 34 36 34 31 32 34 36 38 38 38 40 42 43 44 44
45 45 45 45 44 43 40 39 35 34 34 37 36 38 36 33 33 34 34 33 33 34 38 42 44 46 46
43 43 41 39 37 37 36 35 35 35 32 42 38 40 40 35 34 32 31 31 32 33 35 39 43 44 44
37 36 34 32 32 33 34 35 37 39 35 45 40 42 47 34 32 30 29 29 29 31 34 36 38 42 43
33 27 24 25 26 28 31 33 36 38 35 44 44 41 44 46 33 31 30 26 27 28 30 32 35 38 40
24 21 21 21 23 25 27 30 34 37 33 38 43 42 45 44 41 32 29 29 30 30 31 31 32 33 34
19 19 20 21 22 23 25 28 29 30 32 34 38 40 41 43 46 36 37 28 31 33 33 31 28 27 28
16 17 19 20 21 23 24 27 26 25 26 31 35 39 40 39 41 40 37 39 33 33 34 29 25 24 24
19 20 20 20 21 24 26 27 29 29 27 28 33 36 37 39 42 38 36 34 33 32 30 27 24 24 24
20 21 20 20 22 23 27 29 31 32 32 33 34 35 34 29 33 38 38 36 31 30 32 35 25 25 23
21 21 21 23 25 26 29 31 32 35 35 36 38 40 42 41 31 33 34 35 38 33 31 33 31 22 26

GFSFLT2_700_spd_027.txt.gz
Wind_Speed
40 41 42 46 48 50 48 47 47 47 48 50 51 51 52 52 52 50 50 49 47 44 43 42 41 42 40
42 42 44 45 46 46 46 48 48 48 48 50 50 51 50 49 48 48 46 44 41 40 41 41 42 43 43
42 42 43 44 45 46 47 47 47 47 47 48 48 47 45 45 45 43 40 39 41 42 44 45 45 44 44
46 43 44 44 46 48 48 48 46 43 44 45 43 41 41 42 40 38 39 41 42 43 43 42 41 40 41
43 44 45 46 46 48 49 48 45 42 40 39 38 35 34 37 37 37 38 39 40 41 41 42 41 41 43
43 45 45 45 45 46 46 46 45 40 39 35 31 30 33 33 33 33 35 38 39 41 42 41 41 42 44
44 42 43 44 46 45 44 44 44 36 36 32 28 28 30 30 31 32 35 37 39 41 41 41 41 43 46
43 43 44 43 43 43 41 40 35 29 30 30 29 31 35 31 30 31 32 35 37 38 40 42 43 43 44
42 41 40 39 38 38 34 33 31 28 26 35 31 35 35 28 26 25 26 29 30 33 36 38 40 40 41
33 32 32 31 30 29 29 29 30 29 31 38 34 37 39 26 26 26 25 26 28 30 33 35 36 39 41
23 22 20 21 22 25 27 28 29 29 32 39 36 35 39 39 27 29 28 26 28 29 31 34 36 38 40
16 16 17 18 20 22 24 25 27 30 29 35 37 38 40 40 38 29 28 28 30 28 31 32 34 36 37
15 15 16 17 19 20 21 23 24 27 29 32 37 37 39 41 43 35 39 30 30 32 33 33 33 32 31
14 16 17 18 20 20 21 23 22 23 26 29 34 37 38 40 42 41 39 42 34 30 35 30 30 29 29
18 18 19 19 20 22 24 25 27 27 26 29 34 37 38 41 40 39 41 37 33 34 35 32 27 28 27
19 19 18 19 20 23 25 28 29 30 31 32 35 38 37 35 35 34 33 35 34 32 31 34 28 24 24
20 20 19 20 22 24 27 30 30 31 33 35 37 41 43 39 30 31 35 31 31 28 27 27 30 24 24

GFSFLT2_700_spd_033.txt.gz
Wind_Speed
51 47 50 51 50 50 51 54 57 56 55 53 54 54 54 57 57 55 54 52 51 52 53 53 53 52 52
43 47 48 47 45 48 51 51 53 53 51 52 56 56 54 53 53 54 52 50 51 51 52 52 52 51 50
44 43 41 42 45 47 48 49 51 53 53 50 51 50 51 52 53 52 50 49 51 52 51 51 49 47 45
38 38 40 41 43 45 48 50 50 48 46 49 50 48 49 49 50 49 48 48 48 47 45 44 43 42 41
36 37 39 43 46 48 49 47 47 45 47 48 47 47 45 44 43 42 41 40 40 39 39 39 40 40 41
35 39 42 43 45 46 47 51 47 39 44 38 37 36 35 32 29 29 30 33 35 38 39 41 42 42 42
38 38 42 44 43 40 35 32 30 28 31 25 25 23 21 20 22 26 30 34 37 38 39 40 40 39 39
41 40 36 29 26 23 22 22 20 19 25 19 20 19 17 18 22 25 29 32 34 36 37 38 39 39 39
28 21 18 19 20 19 19 19 17 16 22 22 20 24 19 17 19 22 25 27 29 32 34 36 37 39 40
16 17 18 19 19 19 19 19 20 18 24 22 22 29 29 16 19 22 24 26 28 31 32 33 35 38 39
15 18 20 21 21 22 23 23 22 21 25 30 23 25 30 33 20 23 26 28 32 32 32 33 34 35 39
17 19 21 22 23 23 24 23 22 22 24 30 31 31 34 35 33 28 30 32 37 35 34 33 32 33 34
18 20 22 23 24 24 23 23 21 22 26 29 33 34 35 38 40 33 37 32 33 35 32 33 31 29 30
20 22 23 23 25 25 22 23 21 21 25 30 33 35 36 36 40 38 37 41 33 31 31 32 30 29 31
21 23 24 25 25 25 24 24 24 24 24 28 32 35 37 38 40 38 38 37 34 33 33 31 25 23 24
22 24 25 25 25 25 25 25 25 26 28 29 33 36 37 36 38 36 34 36 32 31 32 34 28 21 20
24 25 26 26 26 26 26 27 26 28 29 31 34 38 42 42 38 37 34 33 33 33 33 32 32 24 23